Starlink 6144

operational
NORAD ID: 56894 Int'l Des: 2023-083 Owner: SPXS Country: US Constellation: starlink
LEOCIRCULAR

About Starlink 6144

Description loading...

Live Position

Loading 3D Globe...

Upcoming Passes

Altitude History

Altitude vs Time

uPlot chart will show altitude changes over time

Two-Line Element Set

1 56894U 23083U 25346.94151233 .00000417 00000-0 45944-4 0 9998
2 56894 43.0026 192.9347 0001193 268.1077 91.9629 15.02532673138742
Epoch: Dec 12, 2025 • Age: 15 hours

Current Status

Altitude 567.2 km
Velocity 7.58 km/s
Sub-Earth Point -31.87°S, 118.83°E
Launch Date Jun 12, 2023
Age 2.5 years
Type internet

Technical Details

Classification Payload
Mass 305.00 kg
Dry Mass 290.00 kg
Total Mass 305.00 kg
Length 0.20 m
Diameter 2.80 m
Span 9.00 m
Shape Box + pan
Manufacturer SPXS
Bus Type Starlink
Phase Status In Orbit
Owner/State SPXS/US

Large Constellations

Loading constellations...